Weather in Voskresenskoye

Russia / Vologda Oblast     59°25′54″N   37°55′25″E
temp.,
°C
wind,
m/s
gust,
m/s
humid.,
%
clouds,
%
prec.,
mm/h
press.,
hPa
HPBL,
m
8 may, sat
sat800:00+4s26885 0.0 101099
03:00+3sse2792100 0.0 1010121
06:00+5se3989100 0.0 1010258
09:00+10sse5126780 0.0 1008930
12:00+10sse61571100 0.1 10071727
15:00+7sse51293100 2.1 10071349
18:00+7sse51194100 6.4 10061203
21:00+6se3896100 10.6 1005997
9 may, sun
sun900:00+6ene1498100 3.5 1003268
03:00+5nw51097100 7.1 1003557
06:00+3nnw51197100 2.1 1005685
09:00+4nw61087100 2.6 1007904
12:00+6nw61078100 0.1 10101179
15:00+10nnw5104633 0.1 10121975
18:00+9nw485958 0.1 10151514
21:00+4nw268211 0.3 1019120
10 may, mon
mon1000:00+2w38805 0.0 1021164
03:00+1w25805 0.0 102478
06:00+3sw27765 0.0 1025166
09:00+9ssw4858100 0.0 1026558
12:00+13ssw594665 0.0 10252154
15:00+13sw5858100 0.0 10261651
18:00+9ssw397646 0.0 1026551
21:00+7s2686100 0.0 1028131
11 may, tue
tue1100:00+8ssw3108825 0.0 1028219
03:00+6ssw399593 0.0 1029172
06:00+8ssw2890100 0.0 1029188
09:00+14ssw47727 0.0 1030446
12:00+18ssw465844 0.0 10291111
15:00+19s465659 0.0 10291246
18:00+17s376896 0.0 1029456
21:00+11s378759 0.0 1029131
12 may, wed
wed1200:00+10s398798 0.0 1030171
03:00+9s249319 0.0 103083
06:00+10sse25865 0.0 1030143
09:00+15sse356311 0.0 1030529
12:00+18sse35495 0.0 10291047
15:00+20s34460 0.0 10281220
18:00+19s24590 0.0 1027332
21:00+12s11730 0.0 102710